Weather History for Shreveport, LA

Change the Weather History Date:

Wednesday, June 20, 2012

  Actual Average Record
Temperature  
Mean Temperature 81 °F 81 °F  
Max Temperature 91 °F 91 °F 104 °F (1936)
Min Temperature 71 °F 70 °F 59 °F (1985)
Degree Days  
Heating Degree Days 0 0  
Month to date heating degree days 0 0  
Since 1 June heating degree days 0 0  
Since 1 July heating degree days 1535 2226  
Cooling Degree Days 16 16  
Month to date cooling degree days 326 280  
Year to date cooling degree days 1022 678  
Since 1 June cooling degree days 326 280  
Growing Degree Days 31 (Base 50)    
Moisture  
Dew Point 67 °F    
Average Humidity 67    
Maximum Humidity 100    
Minimum Humidity 34    
Precipitation  
Precipitation 0.00 in 0.19 in 2.28 in (1993)
Month to date precipitation 5.15 3.67  
Year to date precipitation 24.34 25.88  
Snow  
Snow 0.00 in - - ()
Month to date snowfall 0.0  
Since 1 June snowfall 0.0  
Since 1 July snowfall T  
Snow Depth 0.00 in    
Sea Level Pressure  
Sea Level Pressure 29.99 in    
Wind  
Wind Speed 8 mph (SSE)    
Max Wind Speed 17 mph    
Max Gust Speed 23 mph    
Visibility 10 miles    
Events      
T = Trace of Precipitation, MM = Missing Value Source: NWS Daily Summary

Daily Weather History Graph

Daily Weather History Graph

Search for Another Location

Airport:

Trip Planner

Search our weather history database for the weather conditions in past years. The results will help you decide how hot, cold, wet, or windy it might be!

Date:

Astronomy

Jun. 20, 2012 Rise Set
Actual Time 6:08 AM CDT 8:25 PM CDT
Civil Twilight 5:39 AM CDT 8:54 PM CDT
Nautical Twilight 5:05 AM CDT 9:28 PM CDT
Astronomical Twilight 4:27 AM CDT 10:06 PM CDT
Moon 7:05 AM CDT (6/20) 9:16 PM CDT (6/20)
Length of Visible Light 15h 14m
Length of Day
14h 17m
New Moon, 1% of the Moon is Illuminated
Jun 20
New Moon
Jun 26
First Quarter
Jul 3
Full
Jul 10
Last Quarter
Jul 18
New

Hourly Weather History & Observations

Time (CDT) Temp. Heat Index Dew Point Humidity Pressure Visibility Wind Dir Wind Speed Gust Speed Precip Events Conditions
12:56 AM 73.0 °F - 72.0 °F 96% 29.99 in 10.0 mi SSE 3.5 mph - N/A   Mostly Cloudy
1:56 AM 73.9 °F - 71.1 °F 91% 29.99 in 10.0 mi SE 5.8 mph - N/A   Mostly Cloudy
2:56 AM 72.0 °F - 71.1 °F 97% 29.97 in 9.0 mi SSE 3.5 mph - N/A   Mostly Cloudy
3:56 AM 72.0 °F - 71.1 °F 97% 29.98 in 10.0 mi SSE 6.9 mph - N/A   Scattered Clouds
4:56 AM 72.0 °F - 71.1 °F 97% 29.98 in 10.0 mi SE 5.8 mph - N/A   Scattered Clouds
5:56 AM 72.0 °F - 70.0 °F 93% 29.99 in 10.0 mi SE 4.6 mph - N/A   Scattered Clouds
6:56 AM 72.0 °F - 70.0 °F 93% 30.00 in 10.0 mi SE 5.8 mph - N/A   Scattered Clouds
7:56 AM 75.0 °F - 71.1 °F 87% 30.01 in 10.0 mi SE 9.2 mph - N/A   Scattered Clouds
8:56 AM 78.1 °F - 72.0 °F 81% 30.02 in 10.0 mi SSE 10.4 mph - N/A   Scattered Clouds
9:56 AM 82.0 °F 86.7 °F 72.0 °F 71% 30.02 in 10.0 mi SSE 10.4 mph - N/A   Scattered Clouds
10:56 AM 84.9 °F 89.4 °F 70.0 °F 61% 30.01 in 10.0 mi SE 11.5 mph - N/A   Scattered Clouds
11:56 AM 86.0 °F 88.8 °F 66.9 °F 53% 30.01 in 10.0 mi SE 13.8 mph 19.6 mph N/A   Mostly Cloudy
12:56 PM 88.0 °F 90.3 °F 66.0 °F 48% 30.01 in 10.0 mi South 8.1 mph - N/A   Mostly Cloudy
1:56 PM 89.1 °F 90.3 °F 64.0 °F 43% 29.99 in 10.0 mi SE 12.7 mph 19.6 mph N/A   Mostly Cloudy
2:56 PM 89.1 °F 90.0 °F 63.0 °F 42% 29.98 in 10.0 mi SE 11.5 mph - N/A   Scattered Clouds
3:56 PM 90.0 °F 88.8 °F 57.9 °F 34% 29.97 in 10.0 mi SSE 10.4 mph 17.3 mph N/A   Scattered Clouds
4:56 PM 90.0 °F 88.8 °F 57.9 °F 34% 29.96 in 10.0 mi SSE 13.8 mph 17.3 mph N/A   Scattered Clouds
5:56 PM 89.1 °F 87.7 °F 57.0 °F 34% 29.96 in 10.0 mi South 13.8 mph - N/A   Scattered Clouds
6:56 PM 87.1 °F 86.1 °F 57.9 °F 37% 29.96 in 10.0 mi SSE 12.7 mph - N/A   Scattered Clouds
7:56 PM 82.9 °F 83.7 °F 62.1 °F 49% 29.96 in 10.0 mi SSE 6.9 mph - N/A   Partly Cloudy
8:56 PM 79.0 °F - 64.0 °F 60% 29.96 in 10.0 mi Calm Calm - N/A   Partly Cloudy
9:56 PM 75.0 °F - 64.9 °F 71% 29.97 in 10.0 mi SSE 4.6 mph - N/A   Partly Cloudy
10:56 PM 75.2 °F - 64.4 °F 69% 29.98 in 10.0 mi SSE 4.6 mph - N/A   Clear
11:56 PM 75.0 °F - 64.9 °F 71% 29.98 in 10.0 mi Calm Calm - N/A   Clear